Location: Fredericksburg
(30.2750°N, 98.8720°W)
Time: 15:13:27
(UTC-06:00)

PCSat - Visible Passes

Search period start: 09 December 2016 00:00
Search period end: 19 December 2016 00:00
Orbit: 786 x 794 km, 67.1° (Epoch: 08 December)

Date Brightness Start Highest point End Pass type
(mag) Time Alt. Az. Time Alt. Az. Time Alt. Az.
12 Dec 11.6 19:52:30 10° NNW 19:53:40 17° NNW 19:53:40 17° NNW visible
13 Dec 10.5 19:21:50 10° N 19:25:04 31° NNE 19:25:04 31° NNE visible
14 Dec 10.3 18:51:18 10° N 18:56:02 30° ENE 18:57:15 27° E visible
14 Dec 11.5 20:34:45 10° NW 20:38:11 25° W 20:38:11 25° W visible
15 Dec 10.7 18:20:55 10° N 18:25:03 22° ENE 18:29:10 10° ESE visible
15 Dec 10.8 20:03:30 10° NW 20:08:32 40° WSW 20:13:31 10° S visible
16 Dec 10.1 19:32:26 10° NNW 19:37:45 59° WSW 19:43:02 10° S visible
17 Dec 9.5 19:01:30 10° NNW 19:06:56 86° WSW 19:12:20 10° SSE visible
18 Dec 9.5 18:30:42 10° NNW 18:36:05 66° ENE 18:41:27 10° SSE visible
18 Dec 12.7 20:17:10 10° W 20:18:49 11° WSW 20:20:29 10° WSW visible
